sat.trackr.live / text

‹ back to catalog

STARLINK-36424

NORAD 67419 · 2026-005R

PAYLOAD ACTIVE UNKNOWN

§ Identity

Operator
Country
US
Launch date
2026-01-12
Launch site
AFETR
Launch vehicle
Mass (kg)
RCS (m²)

Purposes: comms

External: N2YO · Heavens-Above · Gunter

§ Orbital elements

Epoch: 2026-05-24T18:22:05.928960Z

Period
94.27 min
Inclination
43.0029°
Eccentricity
0.0001232
Mean motion
15.27584819 rev/d
Perigee alt
482.2 km
Apogee alt
483.9 km
Semi-major
6,861.2 km
B*
4.8738e-4
RAAN
168.1424°
Arg perigee
284.1930°
Mean anomaly
75.8784°
Rev number
2,033

§ Raw data

STARLINK-364241 67419U 26005R   26144.76534640  .00013175  00000+0  48738-3 0  99912 67419  43.0029 168.1424 0001232 284.1930  75.8784 15.27584819 20335

JSON: /api/v1/satellites/67419 · /tle

For live sub-satellite position, see the globe view (requires WebGL).

§ Visibility from observer

Set your observer location to see the next 7 days of passes ≥ 10°. The values pass through the URL so the page stays shareable.

No JS? Fill the form by hand. The geolocation button needs JavaScript.